Location: Chomutov
(50.4500°N, 13.4333°E)
Time: 00:55:59
(UTC+02:00)

FO-29 - Pass Details

Date: 27 September 2021
Orbit: 800 x 1321 km, 98.6° (Epoch: 27 October)

Event Time Altitude Azimuth Distance (km) Brightness Sun altitude
Exits shadow 22:51:11 27° 229° (SW) 2,266 11.3 -34.7°
Maximum altitude 22:54:10 36° 269° (W) 1,976 11.2 -35.0°
Drops below altitude 10° 23:01:18 10° 333° (NNW) 3,359 13.0 -35.7°
Sets 23:04:21 0° 342° (NNW) 4,316 13.8 -36.0°
